Regional Weather Roundup
Issued by NWS

Home | Current Version | Previous Version | Graphics & Text | Print | Product List | Glossary On
Versions: 1 2 3 4 5 6 7 8 9 10 11 12 13 14 15 16 17 18 19 20 21 22 23 24 25 26 27 28 29 30 31 32 33 34 35 36 37 38 39 40 41 42 43 44 45 46 47 48 49 50
000
ASUS43 KDTX 302301
RWRMI
MICHIGAN HOURLY REGIONAL WEATHER ROUNDUP
NATIONAL WEATHER SERVICE DETROIT/PONTIAC MI
700 PM EDT SAT AUG 30 2014

NOTE: "FAIR" INDICATES FEW OR NO CLOUDS BELOW 12,000 FEET WITH NO
SIGNIFICANT WEATHER AND/OR OBSTRUCTION TO VISIBILITY.

MIZ047>049-052>055-059>063-066>070-074>076-081>083-310000-
SOUTHEAST LOWER MICHIGAN

CITY           SKY/WX    TMP DP  RH WIND       PRES   REMARKS
ADRIAN         MOSUNNY   82  67  60 SW16G26   29.91R
ALMA           MOSUNNY   78  69  75 SW14G23   29.82R
ANN ARBOR      MOSUNNY   81  66  60 SW13G22   29.88R
BAD AXE        RAIN      70  69  97 SW9G25    29.84R
CARO           RAIN      71  69  93 SW7       29.83R
DETROIT CITY   MOSUNNY   85  66  53 SW10G21   29.87S
DETROIT        PTSUNNY   83  67  58 S20G25    29.88S
FLINT          PTSUNNY   83  67  58 SW9G18    29.83S
GROSSE ILE     MOSUNNY   82  70  65 S15       29.87S
HILLSDALE      PTSUNNY   81  69  65 SW10G16   29.90S
HOWELL         PTSUNNY   79  66  64 S9        29.85S

CITY           SKY/WX    TMP DP  RH WIND       PRES   REMARKS
JACKSON        PTSUNNY   80  67  64 SW10      29.87S
LAMBERTVILLE   MOSUNNY   81  68  65 S9G18     29.91R
LANSING        PTSUNNY   78  69  73 SW15G25   29.84R
LAPEER         FAIR      80  66  61 SW12      29.84R
MASON          PTSUNNY   78  68  71 SW9       29.86R
MONROE         MOSUNNY   82  66  57 SW12G20   29.88S
MT. CLEMENS    PTSUNNY   82  67  60 S12       29.85S
PONTIAC        PTSUNNY   81  66  60 S13       29.86S
PORT HOPE        N/A     74  70  87 W12G20    29.83R
PORT HURON     SUNNY     79  68  69 S16       29.86S
TRI CITIES     PTSUNNY   77  71  82 S10       29.81S
TROY           MOSUNNY   84  64  51 S14G21    29.88S
SAGINAW HB     DRIZZLE   73  73 100 SW10G18   29.81S
$$
MIZ043>046-050>051-056>058-064>065-071>073-077>080-310000-
SOUTHWEST LOWER MICHIGAN

CITY           SKY/WX    TMP DP  RH WIND       PRES   REMARKS
BATTLE CREEK   PTSUNNY   79  69  71 SW14G24   29.87S
BENTON HARBOR  PTSUNNY   77  68  73 SW14      29.85S
BIG RAPIDS     PTSUNNY   75  68  77 W12G21    29.80S
COLDWATER      RAIN      73  70  90 SW10      29.89R
FREMONT        MOCLDY    75  64  68 SW14G21   29.81R
HOLLAND        MOSUNNY   79  69  71 SW13      29.85R
GRAND RAPIDS   PTSUNNY   80  72  76 W18       29.83S
IONIA          FAIR      78  71  80 SW14G20   29.82F
KALAMAZOO      PTSUNNY   78  68  71 SW15G21   29.87R
LUDINGTON      CLOUDY    71  67  89 SW12G22   29.79S
MARSHALL       PTSUNNY   78  69  73 SW6       29.86S
MOUNT PLEASANT PTSUNNY   80  67  64 SW12G17   29.80R
MUSKEGON       PTSUNNY   76  66  71 SW13G21   29.82R
SOUTH HAVEN    MOSUNNY   79  70  74 SW8G22    29.85R
$$
MIZ016>042-310000-
NORTHERN LOWER MICHIGAN

CITY           SKY/WX    TMP DP  RH WIND       PRES   REMARKS
ALPENA         LGT RAIN  74  70  87 SW10      29.76R FOG
BEAVER ISLAND  CLOUDY    68  66  94 SW7       29.73S FOG
BELLAIRE       CLOUDY    76  66  72 S7        29.73R
CADILLAC       PTSUNNY   70  68  93 SW12G18   29.79S
CHARLEVOIX     CLOUDY    73  69  87 W9        29.75S
FRANKFORT      MOSUNNY   71  65  82 SW8       29.77R
GAYLORD        HVY RAIN  69  66  90 SW16G28   29.77R FOG
GRAYLING       LGT RAIN  69  68  96 SW10G25   29.78S
HARBOR SPRINGS PTSUNNY   72  67  84 W8        29.73R
HOUGHTON LAKE  CLOUDY    72  66  81 SW16G30   29.79S
MANISTEE       PTSUNNY   73  64  73 SW10G17   29.78R
OSCODA         PTSUNNY   73  70  93 S8        29.77S
PELLSTON       CLOUDY    74  68  81 W6        29.73F
ROGERS CITY    CLOUDY    72  70  94 MISG      29.74F
TRAVERSE CITY  PTSUNNY   76  65  68 W10G20    29.73R
$$
MIZ007>008-015-310000-
EASTERN UPPER MICHIGAN

CITY           SKY/WX    TMP DP  RH WIND       PRES   REMARKS
KINROSS        CLOUDY    72  68  88 SW6       29.73S
MACKINAC ISLAN MOSUNNY   69  67  95 W3        29.73F
NEWBERRY       CLOUDY    69  67  94 W5        29.72S
S. S. MARIE    PTSUNNY   72  67  84 SW5       29.72S
$$
MIZ004>006-011>014-085-310000-
CENTRAL UPPER MICHIGAN

CITY           SKY/WX    TMP DP  RH WIND       PRES   REMARKS
MANISTIQUE     DRIZZLE   63  62  97 NW9G16    29.73S
ESCANABA       CLOUDY    64  59  82 N9        29.77R
MENOMINEE      CLOUDY    66  63  88 N10       29.77R
SAWYER-GWINN   CLOUDY    59  57  94 N10G17    29.80R
$$
MIZ001>003-009>011-084-310000-
WESTERN UPPER MICHIGAN

CITY           SKY/WX    TMP DP  RH WIND       PRES   REMARKS
IRON MOUNTAIN  CLOUDY    63  58  83 NW12G22   29.81R
HOUGHTON       CLOUDY    61  55  81 N9        29.85S
COPPER HARBOR    N/A     58  54  86 N12       29.83R
$$

ABBREVIATIONS USED IN REMARKS
   TC - TEMPERATURE IN CELSIUS
  WCI - WIND CHILL INDEX
   HX - HEAT INDEX
  VSB - VISIBILITY




USA.gov is the U.S. government's official web portal to all federal, state and local government web resources and services.